Regional Weather Roundup
Issued by NWS Sioux Falls, SD

Home | Current Version | Previous Version | Graphics & Text | Print | Product List | Glossary On
Versions: 1 2 3 4 5 6 7 8 9 10 11 12 13 14 15 16 17 18 19 20 21 22 23 24 25 26 27 28 29 30 31 32 33 34 35 36 37 38 39 40 41 42 43 44 45 46 47 48 49 50
428
ASUS43 KFSD 080902
RWRFSD

WEATHER ROUNDUP FOR SE SOUTH DAKOTA/SW MINNESOTA/NW IOWA
NATIONAL WEATHER SERVICE SIOUX FALLS SD
300 AM CST MON FEB 08 2016

NOTE: "FAIR" INDICATES FEW OR NO CLOUDS BELOW 12,000 FEET WITH NO
SIGNIFICANT WEATHER AND OR OBSTRUCTIONS TO VISIBILITY.


SDZ038>040-050-052>070-081000-
SOUTHEAST SOUTH DAKOTA

CITY           SKY/WX    TMP DP  RH WIND       PRES   REMARKS
BROOKINGS      LGT SNOW  19  14  81 N31G43    29.95R WCI   0
CHAMBERLAIN    NOT AVBL
HURON          CLOUDY    27  17  66 NW29G36   30.07R WCI  11
MADISON        LGT RAIN  19  19 100 N28G38    29.98S WCI   1
MITCHELL       CLOUDY    28  19  69 N24G41    30.09R WCI  14
SIOUX FALLS    CLOUDY    23  15  71 N31G40    29.99R WCI   5
WINNER         FAIR      29  17  61 NW29G36   30.17R WCI  14
YANKTON        CLOUDY   N/A N/A N/A NW35G44   30.03R
$$

MNZ071-072-080-081-089-090-097-098-081000-
SOUTHWEST MINNESOTA

CITY           SKY/WX    TMP DP  RH WIND       PRES   REMARKS
FAIRMONT       CLOUDY   N/A N/A N/A NW33G43   29.82R VSB 1
JACKSON        CLOUDY    14  10  85 NW35G47   29.86S WCI  -8
LUVERNE          N/A     21  18  86 N22G33    29.96R WCI   5
MARSHALL       LGT SNOW  15  12  88 N32G39    29.95R VSB 3/4 WCI  -6
MONTEVIDEO     LGT SNOW  14  12  92 N26G36    29.98R VSB 1   WCI  -6
PIPESTONE      CLOUDY    19  10  68 N20G33    29.94R WCI   4
REDWOOD FALLS  LGT SNOW  13   7  77 NW24G40   29.91R WCI  -7
TRACY          LGT SNOW  16  13  88 NW30G37   29.94R VSB 1   WCI  -4
WINDOM         HVY SNOW  12  10  92 NW38G47   29.87R VSB 1/4 WCI -11
WORTHINGTON    CLOUDY   N/A N/A N/A NW30G36   29.92R
$$

IAZ001>003-012>014-020>022-031-032-NEZ013-014-SDZ071-081000-
NORTHWEST IOWA

CITY           SKY/WX    TMP DP  RH WIND       PRES   REMARKS
ESTHERVILLE    BLWGSNOW  13  10  88 NW38G49   29.87S VSB 1/4 WCI -10
SIOUX CITY     FLURRIES  28  19  69 N30G39    29.99R WCI  12
SPENCER        LGT SNOW  16  11  80 N38G48    29.91R VSB 3/4 WCI  -6
STORM LAKE     FLURRIES  19  14  79 N33       29.90S WCI   0
$$

ABBREVIATIONS USED IN REMARKS
   TC - TEMPERATURE IN CELSIUS
  WCI - WIND CHILL INDEX
   HX - HEAT INDEX
  VSB - VISIBILITY





USA.gov is the U.S. government's official web portal to all federal, state and local government web resources and services.